Year,Month,Day,Hour,Minute,Value (Times are PST for temperature in C)
2013,09,24,00,00,9.10
2013,09,24,00,01,9.00
2013,09,24,00,02,9.00
2013,09,24,00,03,8.90
2013,09,24,00,04,8.90
2013,09,24,00,05,8.90
2013,09,24,00,06,8.90
2013,09,24,00,07,8.90
2013,09,24,00,08,8.90
2013,09,24,00,09,8.90
2013,09,24,00,10,8.90
2013,09,24,00,11,8.90
2013,09,24,00,12,8.80
2013,09,24,00,13,8.80
2013,09,24,00,14,8.80
2013,09,24,00,15,8.90
2013,09,24,00,16,8.80
2013,09,24,00,17,8.90
2013,09,24,00,18,8.80
2013,09,24,00,19,8.80
2013,09,24,00,20,8.80
2013,09,24,00,21,8.80
2013,09,24,00,22,8.80
2013,09,24,00,23,8.70
2013,09,24,00,24,8.70
2013,09,24,00,25,8.70
2013,09,24,00,26,8.70
2013,09,24,00,27,8.70
2013,09,24,00,28,8.60
2013,09,24,00,29,8.60
2013,09,24,00,30,8.60
2013,09,24,00,31,8.50
2013,09,24,00,32,8.50
2013,09,24,00,33,8.60
2013,09,24,00,34,8.60
2013,09,24,00,35,8.70
2013,09,24,00,36,8.70
2013,09,24,00,37,8.70
2013,09,24,00,38,8.80
2013,09,24,00,39,8.80
2013,09,24,00,40,8.80
2013,09,24,00,41,8.80
2013,09,24,00,42,8.80
2013,09,24,00,43,8.80
2013,09,24,00,44,8.80
2013,09,24,00,45,8.80
2013,09,24,00,46,8.70
2013,09,24,00,47,8.70
2013,09,24,00,48,8.70
2013,09,24,00,49,8.70
2013,09,24,00,50,8.70
2013,09,24,00,51,8.70
2013,09,24,00,52,8.70
2013,09,24,00,53,8.70
2013,09,24,00,54,8.70
2013,09,24,00,55,8.70
2013,09,24,00,56,8.70
2013,09,24,00,57,8.70
2013,09,24,00,58,8.70
2013,09,24,00,59,8.70
2013,09,24,01,00,8.70
2013,09,24,01,01,8.70
2013,09,24,01,02,8.70
2013,09,24,01,03,8.60
2013,09,24,01,04,8.60
2013,09,24,01,05,8.60
2013,09,24,01,06,8.60
2013,09,24,01,07,8.60
2013,09,24,01,08,8.70
2013,09,24,01,09,8.70
2013,09,24,01,10,8.70
2013,09,24,01,11,8.70
2013,09,24,01,12,8.80
2013,09,24,01,13,8.80
2013,09,24,01,14,8.80
2013,09,24,01,15,8.80
2013,09,24,01,16,8.80
2013,09,24,01,17,8.90
2013,09,24,01,18,8.90
2013,09,24,01,19,8.90
2013,09,24,01,20,9.00
2013,09,24,01,21,9.00
2013,09,24,01,22,9.00
2013,09,24,01,23,9.00
2013,09,24,01,24,9.00
2013,09,24,01,25,8.90
2013,09,24,01,26,8.90
2013,09,24,01,27,8.80
2013,09,24,01,28,8.80
2013,09,24,01,29,8.70
2013,09,24,01,30,8.70
2013,09,24,01,31,8.70
2013,09,24,01,32,8.60
2013,09,24,01,33,8.60
2013,09,24,01,34,8.60
2013,09,24,01,35,8.60
2013,09,24,01,36,8.60
2013,09,24,01,37,8.60
2013,09,24,01,38,8.50
2013,09,24,01,39,8.50
2013,09,24,01,40,8.50
2013,09,24,01,41,8.50
2013,09,24,01,42,8.50
2013,09,24,01,43,8.50
2013,09,24,01,44,8.50
2013,09,24,01,45,8.50
2013,09,24,01,46,8.50
2013,09,24,01,47,8.40
2013,09,24,01,48,8.40
2013,09,24,01,49,8.40
2013,09,24,01,50,8.40
2013,09,24,01,51,8.40
2013,09,24,01,52,8.40
2013,09,24,01,53,8.40
2013,09,24,01,54,8.40
2013,09,24,01,55,8.40
2013,09,24,01,56,8.30
2013,09,24,01,57,8.30
2013,09,24,01,58,8.30
2013,09,24,01,59,8.30
2013,09,24,02,00,8.20
2013,09,24,02,01,8.20
2013,09,24,02,02,8.20
2013,09,24,02,03,8.20
2013,09,24,02,04,8.20
2013,09,24,02,05,8.20
2013,09,24,02,06,8.20
2013,09,24,02,07,8.10
2013,09,24,02,08,8.10
2013,09,24,02,09,8.10
2013,09,24,02,10,8.10
2013,09,24,02,11,8.00
2013,09,24,02,12,8.00
2013,09,24,02,13,8.00
2013,09,24,02,14,8.00
2013,09,24,02,15,7.90
2013,09,24,02,16,7.90
2013,09,24,02,17,7.90
2013,09,24,02,18,7.80
2013,09,24,02,19,7.80
2013,09,24,02,20,7.80
2013,09,24,02,21,7.70
2013,09,24,02,22,7.70
2013,09,24,02,23,7.70
2013,09,24,02,24,7.70
2013,09,24,02,25,7.70
2013,09,24,02,26,7.70
2013,09,24,02,27,7.70
2013,09,24,02,28,7.60
2013,09,24,02,29,7.60
2013,09,24,02,30,7.60
2013,09,24,02,31,7.60
2013,09,24,02,32,7.60
2013,09,24,02,33,7.50
2013,09,24,02,34,7.50
2013,09,24,02,35,7.50
2013,09,24,02,36,7.50
2013,09,24,02,37,7.50
2013,09,24,02,38,7.40
2013,09,24,02,39,7.40
2013,09,24,02,40,7.40
2013,09,24,02,41,7.40
2013,09,24,02,42,7.50
2013,09,24,02,43,7.50
2013,09,24,02,44,7.50
2013,09,24,02,45,7.60
2013,09,24,02,46,7.60
2013,09,24,02,47,7.60
2013,09,24,02,48,7.60
2013,09,24,02,49,7.60
2013,09,24,02,50,7.60
2013,09,24,02,51,7.60
2013,09,24,02,52,7.60
2013,09,24,02,53,7.60
2013,09,24,02,54,7.60
2013,09,24,02,55,7.60
2013,09,24,02,56,7.60
2013,09,24,02,57,7.60
2013,09,24,02,58,7.60
2013,09,24,02,59,7.60
2013,09,24,03,00,7.60
2013,09,24,03,01,7.60
2013,09,24,03,02,7.60
2013,09,24,03,03,7.60
2013,09,24,03,04,7.60
2013,09,24,03,05,7.60
2013,09,24,03,06,7.60
2013,09,24,03,07,7.60
2013,09,24,03,08,7.50
2013,09,24,03,09,7.60
2013,09,24,03,10,7.50
2013,09,24,03,11,7.50
2013,09,24,03,12,7.60
2013,09,24,03,13,7.60
2013,09,24,03,14,7.60
2013,09,24,03,15,7.60
2013,09,24,03,16,7.60
2013,09,24,03,17,7.60
2013,09,24,03,18,7.60
2013,09,24,03,19,7.60
2013,09,24,03,20,7.70
2013,09,24,03,21,7.70
2013,09,24,03,22,7.70
2013,09,24,03,23,7.70
2013,09,24,03,24,7.70
2013,09,24,03,25,7.70
2013,09,24,03,26,7.70
2013,09,24,03,27,7.70
2013,09,24,03,28,7.70
2013,09,24,03,29,7.70
2013,09,24,03,30,7.70
2013,09,24,03,31,7.70
2013,09,24,03,32,7.70
2013,09,24,03,33,7.70
2013,09,24,03,34,7.70
2013,09,24,03,35,7.70
2013,09,24,03,36,7.70
2013,09,24,03,37,7.80
2013,09,24,03,38,7.80
2013,09,24,03,39,7.80
2013,09,24,03,40,7.80
2013,09,24,03,41,7.80
2013,09,24,03,42,7.80
2013,09,24,03,43,7.80
2013,09,24,03,44,7.80
2013,09,24,03,45,7.80
2013,09,24,03,46,7.80
2013,09,24,03,47,7.80
2013,09,24,03,48,7.80
2013,09,24,03,49,7.80
2013,09,24,03,50,7.80
2013,09,24,03,51,7.80
2013,09,24,03,52,7.80
2013,09,24,03,53,7.90
2013,09,24,03,54,7.90
2013,09,24,03,55,7.90
2013,09,24,03,56,7.90
2013,09,24,03,57,7.90
2013,09,24,03,58,7.90
2013,09,24,03,59,7.90
2013,09,24,04,00,7.90
2013,09,24,04,01,7.90
2013,09,24,04,02,7.90
2013,09,24,04,03,7.90
2013,09,24,04,04,7.90
2013,09,24,04,05,7.90
2013,09,24,04,06,7.90
2013,09,24,04,07,7.90
2013,09,24,04,08,7.90
2013,09,24,04,09,7.90
2013,09,24,04,10,8.00
2013,09,24,04,11,8.00
2013,09,24,04,12,8.00
2013,09,24,04,13,8.00
2013,09,24,04,14,8.10
2013,09,24,04,15,8.10
2013,09,24,04,16,8.10
2013,09,24,04,17,8.10
2013,09,24,04,18,8.10
2013,09,24,04,19,8.10
2013,09,24,04,20,8.10
2013,09,24,04,21,8.10
2013,09,24,04,22,8.20
2013,09,24,04,23,8.20
2013,09,24,04,24,8.20
2013,09,24,04,25,8.20
2013,09,24,04,26,8.20
2013,09,24,04,27,8.20
2013,09,24,04,28,8.20
2013,09,24,04,29,8.20
2013,09,24,04,30,8.20
2013,09,24,04,31,8.20
2013,09,24,04,32,8.20
2013,09,24,04,33,8.20
2013,09,24,04,34,8.20
2013,09,24,04,35,8.20
2013,09,24,04,36,8.20
2013,09,24,04,37,8.20
2013,09,24,04,38,8.20
2013,09,24,04,39,8.20
2013,09,24,04,40,8.20
2013,09,24,04,41,8.20
2013,09,24,04,42,8.30
2013,09,24,04,43,8.30
2013,09,24,04,44,8.30
2013,09,24,04,45,8.30
2013,09,24,04,46,8.30
2013,09,24,04,47,8.30
2013,09,24,04,48,8.30
2013,09,24,04,49,8.40
2013,09,24,04,50,8.40
2013,09,24,04,51,8.40
2013,09,24,04,52,8.40
2013,09,24,04,53,8.40
2013,09,24,04,54,8.40
2013,09,24,04,55,8.50
2013,09,24,04,56,8.50
2013,09,24,04,57,8.50
2013,09,24,04,58,8.60
2013,09,24,04,59,8.60
2013,09,24,05,00,8.60
2013,09,24,05,01,8.60
2013,09,24,05,02,8.70
2013,09,24,05,03,8.70
2013,09,24,05,04,8.70
2013,09,24,05,05,8.70
2013,09,24,05,06,8.70
2013,09,24,05,07,8.70
2013,09,24,05,08,8.70
2013,09,24,05,09,8.70
2013,09,24,05,10,8.70
2013,09,24,05,11,8.70
2013,09,24,05,12,8.80
2013,09,24,05,13,8.80
2013,09,24,05,14,8.80
2013,09,24,05,15,8.80
2013,09,24,05,16,8.80
2013,09,24,05,17,8.80
2013,09,24,05,18,8.80
2013,09,24,05,19,8.80
2013,09,24,05,20,8.80
2013,09,24,05,21,8.80
2013,09,24,05,22,8.80
2013,09,24,05,23,8.80
2013,09,24,05,24,8.80
2013,09,24,05,25,8.80
2013,09,24,05,26,8.80
2013,09,24,05,27,8.80
2013,09,24,05,28,8.80
2013,09,24,05,29,8.80
2013,09,24,05,30,8.80
2013,09,24,05,31,8.80
2013,09,24,05,32,8.80
2013,09,24,05,33,8.80
2013,09,24,05,34,8.80
2013,09,24,05,35,8.80
2013,09,24,05,36,8.80
2013,09,24,05,37,8.80
2013,09,24,05,38,8.80
2013,09,24,05,39,8.80
2013,09,24,05,40,8.80
2013,09,24,05,41,8.90
2013,09,24,05,42,8.90
2013,09,24,05,43,8.90
2013,09,24,05,44,8.90
2013,09,24,05,45,8.90
2013,09,24,05,46,8.90
2013,09,24,05,47,8.90
2013,09,24,05,48,8.90
2013,09,24,05,49,8.90
2013,09,24,05,50,8.90
2013,09,24,05,51,8.90
2013,09,24,05,52,8.90
2013,09,24,05,53,8.90
2013,09,24,05,54,8.90
2013,09,24,05,55,8.90
2013,09,24,05,56,8.90
2013,09,24,05,57,9.00
2013,09,24,05,58,9.00
2013,09,24,05,59,9.00
2013,09,24,06,00,9.10
2013,09,24,06,01,9.10
2013,09,24,06,02,9.10
2013,09,24,06,03,9.20
2013,09,24,06,04,9.20
2013,09,24,06,05,9.20
2013,09,24,06,06,9.30
2013,09,24,06,07,9.30
2013,09,24,06,08,9.30
2013,09,24,06,09,9.30
2013,09,24,06,10,9.40
2013,09,24,06,11,9.40
2013,09,24,06,12,9.40
2013,09,24,06,13,9.40
2013,09,24,06,14,9.40
2013,09,24,06,15,9.50
2013,09,24,06,16,9.40
2013,09,24,06,17,9.40
2013,09,24,06,18,9.40
2013,09,24,06,19,9.40
2013,09,24,06,20,9.40
2013,09,24,06,21,9.40
2013,09,24,06,22,9.40
2013,09,24,06,23,9.40
2013,09,24,06,24,9.40
2013,09,24,06,25,9.40
2013,09,24,06,26,9.30
2013,09,24,06,27,9.30
2013,09,24,06,28,9.30
2013,09,24,06,29,9.30
2013,09,24,06,30,9.30
2013,09,24,06,31,9.30
2013,09,24,06,32,9.30
2013,09,24,06,33,9.30
2013,09,24,06,34,9.30
2013,09,24,06,35,9.30
2013,09,24,06,36,9.30
2013,09,24,06,37,9.30
2013,09,24,06,38,9.30
2013,09,24,06,39,9.20
2013,09,24,06,40,9.20
2013,09,24,06,41,9.20
2013,09,24,06,42,9.20
2013,09,24,06,43,9.20
2013,09,24,06,44,9.20
2013,09,24,06,45,9.20
2013,09,24,06,46,9.20
2013,09,24,06,47,9.20
2013,09,24,06,48,9.20
2013,09,24,06,49,9.20
2013,09,24,06,50,9.20
2013,09,24,06,51,9.20
2013,09,24,06,52,9.20
2013,09,24,06,53,9.20
2013,09,24,06,54,9.20
2013,09,24,06,55,9.20
2013,09,24,06,56,9.20
2013,09,24,06,57,9.20
2013,09,24,06,58,9.20
2013,09,24,06,59,9.20
2013,09,24,07,00,9.10
2013,09,24,07,01,9.10
2013,09,24,07,02,9.10
2013,09,24,07,03,9.10
2013,09,24,07,04,9.10
2013,09,24,07,05,9.10
2013,09,24,07,06,9.10
2013,09,24,07,07,9.10
2013,09,24,07,08,9.10
2013,09,24,07,09,9.10
2013,09,24,07,10,9.10
2013,09,24,07,11,9.10
2013,09,24,07,12,9.10
2013,09,24,07,13,9.10
2013,09,24,07,14,9.10
2013,09,24,07,15,9.10
2013,09,24,07,16,9.10
2013,09,24,07,17,9.10
2013,09,24,07,18,9.10
2013,09,24,07,19,9.10
2013,09,24,07,20,9.10
2013,09,24,07,21,9.10
2013,09,24,07,22,9.10
2013,09,24,07,23,9.10
2013,09,24,07,24,9.10
2013,09,24,07,25,9.10
2013,09,24,07,26,9.20
2013,09,24,07,27,9.20
2013,09,24,07,28,9.20
2013,09,24,07,29,9.20
2013,09,24,07,30,9.20
2013,09,24,07,31,9.20
2013,09,24,07,32,9.20
2013,09,24,07,33,9.20
2013,09,24,07,34,9.20
2013,09,24,07,35,9.20
2013,09,24,07,36,9.20
2013,09,24,07,37,9.20
2013,09,24,07,38,9.20
2013,09,24,07,39,9.20
2013,09,24,07,40,9.20
2013,09,24,07,41,9.20
2013,09,24,07,42,9.20
2013,09,24,07,43,9.20
2013,09,24,07,44,9.30
2013,09,24,07,45,9.30
2013,09,24,07,46,9.30
2013,09,24,07,47,9.30
2013,09,24,07,48,9.30
2013,09,24,07,49,9.30
2013,09,24,07,50,9.30
2013,09,24,07,51,9.30
2013,09,24,07,52,9.30
2013,09,24,07,53,9.30
2013,09,24,07,54,9.30
2013,09,24,07,55,9.30
2013,09,24,07,56,9.20
2013,09,24,07,57,9.20
2013,09,24,07,58,9.20
2013,09,24,07,59,9.20
2013,09,24,08,00,9.20
2013,09,24,08,01,9.20
2013,09,24,08,02,9.20
2013,09,24,08,03,9.20
2013,09,24,08,04,9.20
2013,09,24,08,05,9.20
2013,09,24,08,06,9.20
2013,09,24,08,07,9.30
2013,09,24,08,08,9.30
2013,09,24,08,09,9.30
2013,09,24,08,10,9.30
2013,09,24,08,11,9.30
2013,09,24,08,12,9.30
2013,09,24,08,13,9.30
2013,09,24,08,14,9.30
2013,09,24,08,15,9.30
2013,09,24,08,16,9.30
2013,09,24,08,17,9.30
2013,09,24,08,18,9.30
2013,09,24,08,19,9.30
2013,09,24,08,20,9.30
2013,09,24,08,21,9.30
2013,09,24,08,22,9.30
2013,09,24,08,23,9.30
2013,09,24,08,24,9.30
2013,09,24,08,25,9.30
2013,09,24,08,26,9.30
2013,09,24,08,27,9.30
2013,09,24,08,28,9.30
2013,09,24,08,29,9.30
2013,09,24,08,30,9.30
2013,09,24,08,31,9.30
2013,09,24,08,32,9.30
2013,09,24,08,33,9.40
2013,09,24,08,34,9.40
2013,09,24,08,35,9.40
2013,09,24,08,36,9.40
2013,09,24,08,37,9.40
2013,09,24,08,38,9.40
2013,09,24,08,39,9.40
2013,09,24,08,40,9.40
2013,09,24,08,41,9.40
2013,09,24,08,42,9.40
2013,09,24,08,43,9.50
2013,09,24,08,44,9.50
2013,09,24,08,45,9.50
2013,09,24,08,46,9.50
2013,09,24,08,47,9.50
2013,09,24,08,48,9.50
2013,09,24,08,49,9.60
2013,09,24,08,50,9.60
2013,09,24,08,51,9.60
2013,09,24,08,52,9.60
2013,09,24,08,53,9.60
2013,09,24,08,54,9.60
2013,09,24,08,55,9.60
2013,09,24,08,56,9.60
2013,09,24,08,57,9.60
2013,09,24,08,58,9.70
2013,09,24,08,59,9.70
2013,09,24,09,00,9.70
2013,09,24,09,01,9.70
2013,09,24,09,02,9.70
2013,09,24,09,03,9.70
2013,09,24,09,04,9.70
2013,09,24,09,05,9.70
2013,09,24,09,06,9.80
2013,09,24,09,07,9.80
2013,09,24,09,08,9.80
2013,09,24,09,09,9.80
2013,09,24,09,10,9.80
2013,09,24,09,11,9.80
2013,09,24,09,12,9.90
2013,09,24,09,13,9.90
2013,09,24,09,14,9.90
2013,09,24,09,15,9.90
2013,09,24,09,16,10.00
2013,09,24,09,17,10.00
2013,09,24,09,18,10.00
2013,09,24,09,19,10.10
2013,09,24,09,20,10.10
2013,09,24,09,21,10.20
2013,09,24,09,22,10.20
2013,09,24,09,23,10.30
2013,09,24,09,24,10.30
2013,09,24,09,25,10.40
2013,09,24,09,26,10.40
2013,09,24,09,27,10.50
2013,09,24,09,28,10.50
2013,09,24,09,29,10.50
2013,09,24,09,30,10.60
2013,09,24,09,31,10.60
2013,09,24,09,32,10.60
2013,09,24,09,33,10.70
2013,09,24,09,34,10.70
2013,09,24,09,35,10.70
2013,09,24,09,36,10.80
2013,09,24,09,37,10.90
2013,09,24,09,38,10.90
2013,09,24,09,39,11.00
2013,09,24,09,40,11.00
2013,09,24,09,41,11.00
2013,09,24,09,42,11.10
2013,09,24,09,43,11.10
2013,09,24,09,44,11.10
2013,09,24,09,45,11.10
2013,09,24,09,46,11.20
2013,09,24,09,47,11.20
2013,09,24,09,48,11.20
2013,09,24,09,49,11.20
2013,09,24,09,50,11.20
2013,09,24,09,51,11.20
2013,09,24,09,52,11.20
2013,09,24,09,53,11.20
2013,09,24,09,54,11.30
2013,09,24,09,55,11.30
2013,09,24,09,56,11.30
2013,09,24,09,57,11.40
2013,09,24,09,58,11.40
2013,09,24,09,59,11.40
2013,09,24,10,00,11.50
2013,09,24,10,01,11.50
2013,09,24,10,02,11.50
2013,09,24,10,03,11.50
2013,09,24,10,04,11.60
2013,09,24,10,05,11.60
2013,09,24,10,06,11.60
2013,09,24,10,07,11.70
2013,09,24,10,08,11.70
2013,09,24,10,09,11.80
2013,09,24,10,10,11.80
2013,09,24,10,11,11.80
2013,09,24,10,12,11.80
2013,09,24,10,13,11.90
2013,09,24,10,14,11.90
2013,09,24,10,15,12.00
2013,09,24,10,16,12.00
2013,09,24,10,17,12.10
2013,09,24,10,18,12.10
2013,09,24,10,19,12.10
2013,09,24,10,20,12.20
2013,09,24,10,21,12.30
2013,09,24,10,22,12.30
2013,09,24,10,23,12.40
2013,09,24,10,24,12.50
2013,09,24,10,25,12.60
2013,09,24,10,26,12.70
2013,09,24,10,27,12.70
2013,09,24,10,28,12.70
2013,09,24,10,29,12.80
2013,09,24,10,30,12.80
2013,09,24,10,31,12.80
2013,09,24,10,32,12.90
2013,09,24,10,33,12.90
2013,09,24,10,34,12.90
2013,09,24,10,35,13.00
2013,09,24,10,36,13.00
2013,09,24,10,37,13.00
2013,09,24,10,38,13.00
2013,09,24,10,39,13.00
2013,09,24,10,40,12.90
2013,09,24,10,41,12.90
2013,09,24,10,42,12.90
2013,09,24,10,43,12.70
2013,09,24,10,44,12.60
2013,09,24,10,45,12.60
2013,09,24,10,46,12.60
2013,09,24,10,47,12.60
2013,09,24,10,48,12.60
2013,09,24,10,49,12.60
2013,09,24,10,50,12.60
2013,09,24,10,51,12.50
2013,09,24,10,52,12.40
2013,09,24,10,53,12.40
2013,09,24,10,54,12.40
2013,09,24,10,55,12.30
2013,09,24,10,56,12.30
2013,09,24,10,57,12.30
2013,09,24,10,58,12.30
2013,09,24,10,59,12.40
2013,09,24,11,00,12.40
2013,09,24,11,01,12.50
2013,09,24,11,02,12.70
2013,09,24,11,03,12.80
2013,09,24,11,04,12.80
2013,09,24,11,05,12.90
2013,09,24,11,06,12.90
2013,09,24,11,07,12.90
2013,09,24,11,08,12.90
2013,09,24,11,09,12.80
2013,09,24,11,10,12.80
2013,09,24,11,11,12.80
2013,09,24,11,12,12.80
2013,09,24,11,13,12.80
2013,09,24,11,14,12.80
2013,09,24,11,15,12.80
2013,09,24,11,16,12.80
2013,09,24,11,17,12.80
2013,09,24,11,18,12.80
2013,09,24,11,19,12.80
2013,09,24,11,20,12.90
2013,09,24,11,21,12.90
2013,09,24,11,22,12.90
2013,09,24,11,23,12.90
2013,09,24,11,24,12.90
2013,09,24,11,25,12.90
2013,09,24,11,26,12.90
2013,09,24,11,27,12.90
2013,09,24,11,28,12.90
2013,09,24,11,29,12.90
2013,09,24,11,30,12.90
2013,09,24,11,31,12.90
2013,09,24,11,32,12.90
2013,09,24,11,33,12.90
2013,09,24,11,34,12.90
2013,09,24,11,35,13.00
2013,09,24,11,36,13.00
2013,09,24,11,37,13.00
2013,09,24,11,38,13.10
2013,09,24,11,39,13.10
2013,09,24,11,40,13.10
2013,09,24,11,41,13.10
2013,09,24,11,42,13.10
2013,09,24,11,43,13.10
2013,09,24,11,44,13.00
2013,09,24,11,45,13.10
2013,09,24,11,46,13.10
2013,09,24,11,47,13.10
2013,09,24,11,48,13.10
2013,09,24,11,49,13.20
2013,09,24,11,50,13.20
2013,09,24,11,51,13.20
2013,09,24,11,52,13.20
2013,09,24,11,53,13.20
2013,09,24,11,54,13.20
2013,09,24,11,55,13.20
2013,09,24,11,56,13.20
2013,09,24,11,57,13.20
2013,09,24,11,58,13.30
2013,09,24,11,59,13.30
2013,09,24,12,00,13.30
2013,09,24,12,01,13.30
2013,09,24,12,02,13.30
2013,09,24,12,03,13.40
2013,09,24,12,04,13.40
2013,09,24,12,05,13.40
2013,09,24,12,06,13.50
2013,09,24,12,07,13.50
2013,09,24,12,08,13.50
2013,09,24,12,09,13.50
2013,09,24,12,10,13.50
2013,09,24,12,11,13.50
2013,09,24,12,12,13.60
2013,09,24,12,13,13.60
2013,09,24,12,14,13.50
2013,09,24,12,15,13.50
2013,09,24,12,16,13.40
2013,09,24,12,17,13.40
2013,09,24,12,18,13.40
2013,09,24,12,19,13.40
2013,09,24,12,20,13.50
2013,09,24,12,21,13.50
2013,09,24,12,22,13.60
2013,09,24,12,23,13.60
2013,09,24,12,24,13.60
2013,09,24,12,25,13.70
2013,09,24,12,26,13.60
2013,09,24,12,27,13.60
2013,09,24,12,28,13.50
2013,09,24,12,29,13.50
2013,09,24,12,30,13.50
2013,09,24,12,31,13.60
2013,09,24,12,32,13.60
2013,09,24,12,33,13.60
2013,09,24,12,34,13.70
2013,09,24,12,35,13.70
2013,09,24,12,36,13.70
2013,09,24,12,37,13.70
2013,09,24,12,38,13.70
2013,09,24,12,39,13.70
2013,09,24,12,40,13.70
2013,09,24,12,41,13.70
2013,09,24,12,42,13.70
2013,09,24,12,43,13.70
2013,09,24,12,44,13.70
2013,09,24,12,45,13.70
2013,09,24,12,46,13.70
2013,09,24,12,47,13.80
2013,09,24,12,48,13.80
2013,09,24,12,49,13.80
2013,09,24,12,50,13.80
2013,09,24,12,51,13.80
2013,09,24,12,52,13.80
2013,09,24,12,53,13.80
2013,09,24,12,54,13.80
2013,09,24,12,55,13.70
2013,09,24,12,56,13.70
2013,09,24,12,57,13.70
2013,09,24,12,58,13.80
2013,09,24,12,59,13.80
2013,09,24,13,00,13.80
2013,09,24,13,01,13.80
2013,09,24,13,02,13.80
2013,09,24,13,03,13.80
2013,09,24,13,04,13.80
2013,09,24,13,05,13.80
2013,09,24,13,06,13.80
2013,09,24,13,07,13.80
2013,09,24,13,08,13.80
2013,09,24,13,09,13.80
2013,09,24,13,10,13.90
2013,09,24,13,11,13.90
2013,09,24,13,12,14.00
2013,09,24,13,13,14.00
2013,09,24,13,14,14.00
2013,09,24,13,15,14.00
2013,09,24,13,16,14.00
2013,09,24,13,17,14.00
2013,09,24,13,18,14.00
2013,09,24,13,19,14.00
2013,09,24,13,20,14.00
2013,09,24,13,21,14.00
2013,09,24,13,22,14.00
2013,09,24,13,23,13.90
2013,09,24,13,24,13.90
2013,09,24,13,25,13.90
2013,09,24,13,26,13.90
2013,09,24,13,27,13.90
2013,09,24,13,28,13.90
2013,09,24,13,29,13.90
2013,09,24,13,30,13.90
2013,09,24,13,31,13.90
2013,09,24,13,32,13.90
2013,09,24,13,33,13.90
2013,09,24,13,34,13.90
2013,09,24,13,35,13.90
2013,09,24,13,36,13.80
2013,09,24,13,37,13.80
2013,09,24,13,38,13.80
2013,09,24,13,39,13.70
2013,09,24,13,40,13.70
2013,09,24,13,41,13.70
2013,09,24,13,42,13.70
2013,09,24,13,43,13.70
2013,09,24,13,44,13.60
2013,09,24,13,45,13.60
2013,09,24,13,46,13.60
2013,09,24,13,47,13.50
2013,09,24,13,48,13.50
2013,09,24,13,49,13.60
2013,09,24,13,50,13.60
2013,09,24,13,51,13.60
2013,09,24,13,52,13.60
2013,09,24,13,53,13.60
2013,09,24,13,54,13.70
2013,09,24,13,55,13.70
2013,09,24,13,56,13.70
2013,09,24,13,57,13.70
2013,09,24,13,58,13.70
2013,09,24,13,59,13.70
2013,09,24,14,00,13.80
2013,09,24,14,01,13.80
2013,09,24,14,02,13.70
2013,09,24,14,03,13.70
2013,09,24,14,04,13.60
2013,09,24,14,05,13.60
2013,09,24,14,06,13.60
2013,09,24,14,07,13.60
2013,09,24,14,08,13.60
2013,09,24,14,09,13.60
2013,09,24,14,10,13.60
2013,09,24,14,11,13.60
2013,09,24,14,12,13.60
2013,09,24,14,13,13.50
2013,09,24,14,14,13.50
2013,09,24,14,15,13.50
2013,09,24,14,16,13.50
2013,09,24,14,17,13.40
2013,09,24,14,18,13.40
2013,09,24,14,19,13.30
2013,09,24,14,20,13.30
2013,09,24,14,21,13.30
2013,09,24,14,22,13.30
2013,09,24,14,23,13.30
2013,09,24,14,24,13.30
2013,09,24,14,25,13.30
2013,09,24,14,26,13.30
2013,09,24,14,27,13.30
2013,09,24,14,28,13.30
2013,09,24,14,29,13.30
2013,09,24,14,30,13.30
2013,09,24,14,31,13.30
2013,09,24,14,32,13.30
2013,09,24,14,33,13.30
2013,09,24,14,34,13.20
2013,09,24,14,35,13.20
2013,09,24,14,36,13.20
2013,09,24,14,37,13.20
2013,09,24,14,38,13.20
2013,09,24,14,39,13.20
2013,09,24,14,40,13.20
2013,09,24,14,41,13.20
2013,09,24,14,42,13.20
2013,09,24,14,43,13.20
2013,09,24,14,44,13.20
2013,09,24,14,45,13.20
2013,09,24,14,46,13.20
2013,09,24,14,47,13.20
2013,09,24,14,48,13.20
2013,09,24,14,49,13.20
2013,09,24,14,50,13.20
2013,09,24,14,51,13.20
2013,09,24,14,52,13.20
2013,09,24,14,53,13.20
2013,09,24,14,54,13.20
2013,09,24,14,55,13.20
2013,09,24,14,56,13.20
2013,09,24,14,57,13.20
2013,09,24,14,58,13.20
2013,09,24,14,59,13.20
2013,09,24,15,00,13.20
2013,09,24,15,01,13.20
2013,09,24,15,02,13.20
2013,09,24,15,03,13.20
2013,09,24,15,04,13.20
2013,09,24,15,05,13.30
2013,09,24,15,06,13.30
2013,09,24,15,07,13.30
2013,09,24,15,08,13.30
2013,09,24,15,09,13.30
2013,09,24,15,10,13.30
2013,09,24,15,11,13.30
2013,09,24,15,12,13.30
2013,09,24,15,13,13.30
2013,09,24,15,14,13.30
2013,09,24,15,15,13.40
2013,09,24,15,16,13.40
2013,09,24,15,17,13.40
2013,09,24,15,18,13.40
2013,09,24,15,19,13.40
2013,09,24,15,20,13.40
2013,09,24,15,21,13.40
2013,09,24,15,22,13.30
2013,09,24,15,23,13.30
2013,09,24,15,24,13.30
2013,09,24,15,25,13.30
2013,09,24,15,26,13.30
2013,09,24,15,27,13.30
2013,09,24,15,28,13.30
2013,09,24,15,29,13.40
2013,09,24,15,30,13.40
2013,09,24,15,31,13.40
2013,09,24,15,32,13.50
2013,09,24,15,33,13.40
2013,09,24,15,34,13.40
2013,09,24,15,35,13.40
2013,09,24,15,36,13.50
2013,09,24,15,37,13.40
2013,09,24,15,38,13.40
2013,09,24,15,39,13.40
2013,09,24,15,40,13.50
2013,09,24,15,41,13.50
2013,09,24,15,42,13.60
2013,09,24,15,43,13.60
2013,09,24,15,44,13.60
2013,09,24,15,45,13.50
2013,09,24,15,46,13.40
2013,09,24,15,47,13.40
2013,09,24,15,48,13.40
2013,09,24,15,49,13.40
2013,09,24,15,50,13.30
2013,09,24,15,51,13.30
2013,09,24,15,52,13.30
2013,09,24,15,53,13.30
2013,09,24,15,54,13.30
2013,09,24,15,55,13.30
2013,09,24,15,56,13.20
2013,09,24,15,57,13.20
2013,09,24,15,58,13.20
2013,09,24,15,59,13.20
2013,09,24,16,00,13.20
2013,09,24,16,01,13.20
2013,09,24,16,02,13.20
2013,09,24,16,03,13.20
2013,09,24,16,04,13.20
2013,09,24,16,05,13.20
2013,09,24,16,06,13.20
2013,09,24,16,07,13.20
2013,09,24,16,08,13.20
2013,09,24,16,09,13.30
2013,09,24,16,10,13.20
2013,09,24,16,11,13.20
2013,09,24,16,12,13.20
2013,09,24,16,13,13.20
2013,09,24,16,14,13.20
2013,09,24,16,15,13.20
2013,09,24,16,16,13.20
2013,09,24,16,17,13.20
2013,09,24,16,18,13.20
2013,09,24,16,19,13.20
2013,09,24,16,20,13.20
2013,09,24,16,21,13.20
2013,09,24,16,22,13.20
2013,09,24,16,23,13.20
2013,09,24,16,24,13.30
2013,09,24,16,25,13.30
2013,09,24,16,26,13.30
2013,09,24,16,27,13.20
2013,09,24,16,28,13.20
2013,09,24,16,29,13.20
2013,09,24,16,30,13.20
2013,09,24,16,31,13.20
2013,09,24,16,32,13.20
2013,09,24,16,33,13.20
2013,09,24,16,34,13.20
2013,09,24,16,35,13.20
2013,09,24,16,36,13.20
2013,09,24,16,37,13.20
2013,09,24,16,38,13.20
2013,09,24,16,39,13.20
2013,09,24,16,40,13.30
2013,09,24,16,41,13.30
2013,09,24,16,42,13.30
2013,09,24,16,43,13.30
2013,09,24,16,44,13.30
2013,09,24,16,45,13.30
2013,09,24,16,46,13.30
2013,09,24,16,47,13.30
2013,09,24,16,48,13.30
2013,09,24,16,49,13.40
2013,09,24,16,50,13.40
2013,09,24,16,51,13.40
2013,09,24,16,52,13.50
2013,09,24,16,53,13.50
2013,09,24,16,54,13.60
2013,09,24,16,55,13.60
2013,09,24,16,56,13.60
2013,09,24,16,57,13.60
2013,09,24,16,58,13.60
2013,09,24,16,59,13.60
2013,09,24,17,00,13.70
2013,09,24,17,01,13.70
2013,09,24,17,02,13.70
2013,09,24,17,03,13.70
2013,09,24,17,04,13.80
2013,09,24,17,05,13.80
2013,09,24,17,06,13.80
2013,09,24,17,07,13.80
2013,09,24,17,08,13.80
2013,09,24,17,09,13.90
2013,09,24,17,10,13.90
2013,09,24,17,11,13.90
2013,09,24,17,12,13.90
2013,09,24,17,13,13.90
2013,09,24,17,14,13.90
2013,09,24,17,15,13.90
2013,09,24,17,16,13.90
2013,09,24,17,17,13.90
2013,09,24,17,18,13.90
2013,09,24,17,19,13.90
2013,09,24,17,20,13.90
2013,09,24,17,21,14.00
2013,09,24,17,22,14.00
2013,09,24,17,23,13.90
2013,09,24,17,24,13.90
2013,09,24,17,25,13.90
2013,09,24,17,26,13.90
2013,09,24,17,27,13.90
2013,09,24,17,28,13.90
2013,09,24,17,29,13.90
2013,09,24,17,30,13.90
2013,09,24,17,31,13.90
2013,09,24,17,32,13.90
2013,09,24,17,33,13.90
2013,09,24,17,34,13.90
2013,09,24,17,35,13.90
2013,09,24,17,36,13.90
2013,09,24,17,37,13.90
2013,09,24,17,38,13.90
2013,09,24,17,39,13.90
2013,09,24,17,40,13.90
2013,09,24,17,41,13.90
2013,09,24,17,42,13.90
2013,09,24,17,43,13.90